Regional Weather Roundup
Issued by NWS

Home | Current Version | Previous Version | Graphics & Text | Print | Product List | Glossary On
Versions: 1 2 3 4 5 6 7 8 9 10 11 12 13 14 15 16 17 18 19 20 21 22 23 24 25 26 27 28 29 30 31 32 33 34 35 36 37 38 39 40 41 42 43 44 45 46 47 48 49 50
008
ASUS44 KJAN 010503
RWRMS

MISSISSIPPI HOURLY WEATHER ROUNDUP
NATIONAL WEATHER SERVICE JACKSON MS
1200 AM CDT MON SEP 01 2014

NOTE: "FAIR: INDICATES FEW OR NO CLOUDS BELOW 12,000 FEET WITH NO
SIGNIFICANT WEATHER AND/OR OBSTRUCTIONS TO VISIBILITY.

MSZ001>002-007>008-010>013-018>021-025>028-034>036-010600-
NORTHWEST MISSISSIPPI

CITY           SKY/WX    TMP DP  RH WIND       PRES   REMARKS
CLARKSDALE     FAIR      77  77 100 CALM      29.99S
CLEVELAND      FAIR      77  76  98 S8        29.98F
GREENWOOD      PTCLDY    76  74  93 S5        30.01S
GREENVILLE     PTCLDY    78  75  90 S8        29.99S
GRENADA        FAIR      73  73 100 S5        30.02F
OLIVE BRANCH   CLEAR     73 N/A N/A S7        30.00S
OXFORD         FAIR      75  73  94 S3        30.03F
TUNICA         CLEAR     77  73  88 S9        29.98F
$$

MSZ003>006-009-014>017-022>024-029>033-037>039-010600-
NORTHEAST MISSISSIPPI

CITY           SKY/WX    TMP DP  RH WIND       PRES   REMARKS
BELMONT        FAIR      76  74  96 S5        30.05S
COLUMBUS AFB   PTCLDY    74  73  96 S5        30.04S
CORINTH        MOCLDY    75  73  94 S6        30.01F
GOLDN TRIANGLE PTCLDY    75  72  88 S6        30.05S
STARKVILLE     FAIR      73  72  94 CALM      30.04S
TUPELO         CLEAR     76  74  93 S5        30.03S
$$

MSZ040-058-010600-
CENTRAL MISSISSIPPI

CITY           SKY/WX    TMP DP  RH WIND       PRES   REMARKS
JACKSON INTL   PTCLDY    78  73  84 S8        30.04S
JACKSON HAWKNS PTCLDY    78  73  84 S8        30.04S
MERIDIAN KEY   NOT AVBL
MERIDIAN NAS   CLEAR     77  72  84 SE3       30.06S
RAYMOND        FAIR      77  72  83 S5        30.03F
VICKSBURG      PTCLDY    78  74  87 S7        30.01S
$$

MSZ059>079-010600-
SOUTH MISSISSIPPI

CITY           SKY/WX    TMP DP  RH WIND       PRES   REMARKS
BROOKHAVEN     FAIR      77  75  94 SE6       30.06F
HATTIESBURG    CLEAR     76  73  91 CALM      30.07F
MCCOMB         CLEAR     77  74  90 SE6       30.05F
NATCHEZ        CLEAR     77  73  88 S7        30.03S
PINE BELT      CLEAR     73  70  88 CALM      30.08F
$$

MSZ080>082-010600-
COASTAL MISSISSIPPI

CITY           SKY/WX    TMP DP  RH WIND       PRES   REMARKS
BILOXI         PTCLDY    84  76  76 S7        30.06F HX  93
PASCAGOULA     MOCLDY    75  74  96 CALM      30.07S
GULFPORT       CLEAR     83  76  79 SE9       30.05F HX  91
$$



USA.gov is the U.S. government's official web portal to all federal, state and local government web resources and services.